Showing default

S-NET D, 43186

Orbit data source: Space-Track

S-NET D, 43186 is a payload satellite owned by TUB (DE) in SSO that was launched on Thu, 01 Feb 2018 UTC via a SOYUZ-2-1A launch vehicle from the Vostochny Cosmodrome (VOSTO). Payload-class satellites include a variety of spacecraft equipped with specific instruments for various scientific and technological missions. These include communications satellites like Starlink; space stations such as the ISS; scientific satellites like the Hubble; Earth observation satellites from companies like Planet Labs, Umbra, and HawkEye 360; GPS; miniature CubeSats for education and research; and military/defense satellites.

Loading next visibility...
Identifier
43186, 2018-014G
Orbit
SSO
Last TLE update
6 hours ago
Origin
Manufacturer
TUB
Mission
Operational Commercial Com/Tech
Bus & Motor
TUBIX10, Unknown motor
Mass
8 kg wet, 8 kg dry
Launch date (UTC)
2018-02-01 (7 years ago)
Launch vehicle
SOYUZ-2-1A
Launch site
Vostochny Cosmodrome (VOSTO)
Object type
Payload
Rocket body
Debris
Shape & HBR
Box, 0.24 m
Radar Cross Section
0.086 m², Medium (>0.1 m² and < 1m²)

Expand to show TLE details & history

TLE from 6 hours ago
0 S-NET D
1 43186U 18014G   25183.59668722  .00003761  00000-0  22261-3 0  9993
2 43186  97.5605  86.2688 0010193 137.8900 222.3115 15.12000006405859
Epoch: 2025-07-02T14:19Z
TLE epoch observation values (Epoch: 2025-07-02T14:19:13.775Z)
Latitude
-0.00008°
Longitude
-49.4141°
Altitude
538.388 km
Speed
7.59 km/s
True Right ascension
05h 45m 04s
True Declination
0° 00' 00"
Sunlit
Object was in daylight at epoch
Visualization orbit readout
Latitude
-59.87926°
Longitude
117.6748°
Altitude
554.863 km
Speed
7.582 km/s
Apparent Right ascension
18h 38m 56s
Apparent Declination
-52° 16' 17"
Sunlit
Object is in full shadow
Visualization observer readout
Local Sidereal Time
07:52:42
Azimuth
140.421° SSE
Elevation
-72.316°
Doppler factor
1
Orbital elements
Apogee altitude
534.123 km
Perigee altitude
520.046 km
Semi-major axis
6,905.222 km
Eccentricity
0.00102
Inclination
97.5605°
RAAN
86.2688°
Arg. of periapsis
137.89°
True anomaly
Unknown
Mean anomaly
222.3115°
Eccentric anomaly
Unknown
Mean motion
3.78248 °/min
Orbital period
95.18 mins
BSTAR
0.00022261
Loading maneuver chart data...
Loading SW <> Apogee altitude chart data...
Loading historical data...
Loading historical data...
Loading historical data...
Loading historical data...
Loading historical data...
Loading historical data...
Loading historical data...

S-NET D Visibility forecast

Observer location: undefined°, undefined°

Span
Click to sort rows by Start time (UTC) header in descending order
Start Az.
Max El. time (UTC)
Max El. Az.
Max El.
End time (UTC)
End Az.
5 mins2025-07-03 06:46:42.851Z349.885° N2025-07-03 06:48:42.851Z293.899° NW35.769°2025-07-03 06:51:42.851Z216.452° SW
6 mins2025-07-03 17:27:42.851Z157.933° S2025-07-03 17:29:42.851Z120.151° SE42.928°2025-07-03 17:33:42.851Z351.846° N
|